TimeEDT,TemperatureF,Dew PointF,Humidity,Sea Level PressureIn,VisibilityMPH,Wind Direction,Wind SpeedMPH,Gust SpeedMPH,PrecipitationIn,Events,Conditions,WindDirDegrees,DateUTC
12:53 AM,30.9,14.0,50,30.00,10.0,West,12.7,21.9,N/A,,Clear,270,2013-03-20 04:53:00
1:53 AM,30.0,14.0,51,30.00,10.0,West,13.8,-,N/A,,Clear,260,2013-03-20 05:53:00
2:53 AM,30.0,14.0,51,30.00,10.0,West,9.2,-,N/A,,Clear,260,2013-03-20 06:53:00
3:53 AM,28.9,14.0,54,29.99,10.0,West,11.5,17.3,N/A,,Clear,260,2013-03-20 07:53:00
4:53 AM,28.9,14.0,54,29.99,10.0,WSW,8.1,-,N/A,,Clear,250,2013-03-20 08:53:00
5:53 AM,28.0,14.0,56,29.99,10.0,WSW,6.9,-,N/A,,Clear,250,2013-03-20 09:53:00
6:53 AM,27.0,14.0,58,30.00,10.0,WSW,6.9,-,N/A,,Clear,250,2013-03-20 10:53:00
7:53 AM,27.0,14.0,58,30.00,10.0,SW,5.8,-,N/A,,Scattered Clouds,230,2013-03-20 11:53:00
8:53 AM,28.9,15.1,56,29.99,10.0,SW,9.2,-,N/A,,Partly Cloudy,230,2013-03-20 12:53:00
9:53 AM,32.0,12.0,44,29.97,10.0,SW,13.8,19.6,N/A,,Clear,230,2013-03-20 13:53:00
11:53 AM,35.1,12.9,40,29.94,10.0,West,13.8,27.6,N/A,,Mostly Cloudy,260,2013-03-20 15:53:00
12:53 PM,36.0,17.1,46,29.91,10.0,WSW,12.7,23.0,N/A,,Overcast,240,2013-03-20 16:53:00
1:53 PM,37.9,15.1,39,29.88,10.0,West,23.0,33.4,N/A,,Mostly Cloudy,270,2013-03-20 17:53:00
2:53 PM,37.9,12.9,36,29.86,10.0,West,18.4,29.9,N/A,,Mostly Cloudy,260,2013-03-20 18:53:00
3:53 PM,37.9,12.0,35,29.85,10.0,West,19.6,28.8,N/A,,Overcast,280,2013-03-20 19:53:00
4:53 PM,37.9,10.0,32,29.84,10.0,West,24.2,32.2,N/A,,Scattered Clouds,270,2013-03-20 20:53:00
5:53 PM,37.0,14.0,39,29.85,10.0,NW,17.3,24.2,N/A,,Partly Cloudy,310,2013-03-20 21:53:00
6:53 PM,32.0,14.0,48,29.87,10.0,NW,16.1,21.9,N/A,,Partly Cloudy,310,2013-03-20 22:53:00
7:53 PM,30.0,12.9,49,29.89,10.0,WNW,15.0,20.7,N/A,,Mostly Cloudy,300,2013-03-20 23:53:00
8:53 PM,28.9,12.0,49,29.91,10.0,WNW,13.8,-,N/A,,Clear,300,2013-03-21 00:53:00
9:53 PM,26.1,16.0,66,29.93,10.0,WNW,12.7,-,N/A,,Clear,300,2013-03-21 01:53:00
10:53 PM,25.0,17.1,72,29.93,10.0,WNW,5.8,-,N/A,,Partly Cloudy,300,2013-03-21 02:53:00
11:53 PM,25.0,16.0,69,29.93,10.0,West,4.6,-,N/A,,Overcast,270,2013-03-21 03:53:00